[[{"header":{"parameterUnit":"m.s-1","parameterCategory":1,"la1":30.2991,"la2":30.254,"lo1":-89.0895,"lo2":-89.0444,"dy":0.0017,"dx":0.0017,"nx":28,"ny":28,"refTime":"2024-07-11T21:00:00:Z","depth":0,"parameterNumber":2,"parameterNumberName":"U-component_of_WINDS"},"data":[0,0,0,0,0,0,0,0,0,0,0,0,0,0,0,0,0,0,0,0,0,0,0,0,0,0,0,0,0,0,0,0,0,0,0,0,0,0,0,0,0,0,0,0,0,0,0,0,0,0,0,0,0,0,0,0,0,0,0.5472,0.5473,0,0.5528,0.5528,0.5529,0.5559,0.5559,0.5559,0.5559,0.5615,0.5616,0.5618,0,0,0,0,0,0,0,0,0,0,0,0,0,0.5391,0.5392,0.5472,0.5473,0.5474,0.5528,0.5528,0.5529,0.5559,0.5559,0.5559,0.5559,0.5615,0.5616,0.5618,0,0,0,0,0,0,0,0,0,0,0,0,0,0.5434,0.5392,0.5472,0.5495,0.5498,0.5528,0.5529,0.5529,0.5559,0.5559,0.5559,0.5559,0.5614,0.5616,0.5618,0.5629,0,0,0.5625,0.5626,0,0,0,0,0,0,0,0,0.5432,0.5437,0.5491,0.5494,0.5497,0.5537,0.552,0.5563,0.5559,0.5536,0.5559,0.556,0.5589,0.5593,0.5603,0.5632,0.5634,0.5625,0.5626,0.5627,0.5628,0,0,0,0,0,0,0,0.5429,0.5435,0.5494,0.5492,0.5495,0.5502,0.5509,0.5528,0.5561,0.5538,0.554,0.5546,0.559,0.5601,0.5605,0.5635,0.5625,0.5627,0.5628,0.5629,0.5675,0.5675,0,0,0,0,0,0,0.5422,0.5432,0.5492,0.5496,0.5464,0.5504,0.5511,0.5524,0.5561,0.5567,0.5546,0.5548,0.5597,0.5602,0.5607,0.5622,0.5627,0.5629,0.563,0.5675,0.5675,0.5675,0,0,0,0,0,0,0.542,0.5427,0.549,0.5465,0.5473,0.5505,0.5519,0.5525,0.5535,0.5567,0.5573,0.5551,0.5598,0.5604,0.5623,0.5624,0.563,0.5632,0.5675,0.5675,0.5675,0.5652,0,0,0,0,0,0,0.5418,0.5426,0.5431,0.5465,0.5474,0.5506,0.5519,0.5526,0.5539,0.5542,0.5573,0.5579,0.5598,0.562,0.5625,0.5627,0.5633,0.5675,0.5675,0.5675,0.5653,0.5652,0.565,0,0,0,0,0,0.5415,0.5422,0.5431,0.5438,0.5481,0.5506,0.5512,0.5534,0.5539,0.5544,0.5564,0.5578,0.5623,0.5622,0.5628,0.5631,0.5675,0.5675,0.5675,0.5654,0.5652,0.565,0,0,0,0,0,0,0.5387,0.5427,0.5437,0.5456,0.5477,0.5511,0.5518,0.5531,0.5552,0.5553,0.558,0.5586,0.5604,0.5619,0.5617,0.5643,0.5651,0.5652,0.5632,0.5631,0.5629,0.5625,0.5635,0,0,0,0,0,0.5383,0.5401,0.5434,0.5447,0.5458,0.5486,0.5498,0.5513,0.5536,0.5546,0.5567,0.5589,0.5608,0.5621,0.564,0.5656,0.5663,0.5661,0.5659,0.5658,0.5658,0.5668,0.5667,0.5675,0.5675,0.5675,0,0,0.5376,0.5399,0.5409,0.5443,0.5461,0.5478,0.5493,0.5511,0.5524,0.5548,0.5568,0.5585,0.5611,0.5629,0.5638,0.5642,0.5658,0.5658,0.5656,0.5658,0.5668,0.5667,0.5666,0.5675,0.5675,0.5675,0,0,0.537,0.539,0.5403,0.5422,0.545,0.5468,0.5471,0.5503,0.5515,0.5536,0.5555,0.557,0.5603,0.5621,0.5634,0.5635,0.5649,0.5641,0.5633,0.5642,0.5642,0.5641,0.5642,0.5642,0.5642,0.5641,0.5641,0,0.5357,0.5384,0.5408,0.5425,0.5439,0.5462,0.5476,0.5492,0.5525,0.5534,0.5539,0.5581,0.56,0.5622,0.5622,0.5632,0.5637,0.5637,0.564,0.564,0.564,0.564,0.5641,0.564,0.5641,0.5641,0.5641,0,0.5366,0.5384,0.5391,0.5423,0.5438,0.5453,0.5479,0.5492,0.5506,0.5524,0.5544,0.5568,0.5593,0.5599,0.5613,0.5624,0.5626,0.5635,0.5643,0.5637,0.5639,0.5639,0.5639,0.5639,0.564,0.564,0,0,0.5345,0.539,0.5392,0.5407,0.5439,0.5454,0.547,0.5494,0.5504,0.5526,0.554,0.5567,0.5576,0.5591,0.5607,0.5615,0.5615,0.5623,0.5624,0.5621,0.5628,0.5621,0.5621,0.5623,0.5624,0.5624,0.5625,0,0.5344,0.5374,0.5396,0.5417,0.5435,0.5457,0.5471,0.5492,0.551,0.5526,0.5545,0.5564,0.5574,0.5584,0.5592,0.5613,0.5616,0.5613,0.5636,0.5637,0.5629,0.5621,0.5614,0.5614,0.5626,0.5626,0.5626,0,0.5347,0.5369,0.5392,0.5423,0.5431,0.5443,0.5467,0.5483,0.5508,0.552,0.5537,0.5554,0.5571,0.5577,0.5602,0.5599,0.561,0.5621,0.5622,0.5625,0.5631,0.5624,0.5615,0.5615,0.5627,0.5627,0.5627,0,0.5329,0.5364,0.5382,0.5394,0.5431,0.5439,0.5454,0.5479,0.5493,0.5514,0.5523,0.5546,0.5558,0.5575,0.5598,0.56,0.562,0.5628,0.563,0.5629,0.5633,0.5632,0.5626,0.564,0.564,0.564,0.564,0,0.5326,0.5339,0.5375,0.5386,0.5402,0.5427,0.5441,0.5459,0.5481,0.5496,0.5516,0.553,0.5558,0.5575,0.5593,0.561,0.5616,0.5626,0.563,0.5624,0.5622,0.5631,0.5632,0.564,0.564,0.564,0.564,0,0.5309,0.5333,0.5355,0.5388,0.5397,0.5406,0.5435,0.5446,0.5465,0.5483,0.5489,0.5518,0.5539,0.5563,0.5591,0.5603,0.5619,0.5626,0.5611,0.5614,0.5614,0.5614,0.5613,0.5614,0.5627,0.5627,0.5627,0,0.5305,0.5316,0.535,0.5362,0.5377,0.5396,0.541,0.5435,0.5449,0.5478,0.5486,0.5508,0.5528,0.556,0.5583,0.5605,0.5613,0.5611,0.5616,0.5609,0.5613,0.5612,0.5613,0.5609,0.5609,0.5609,0.5609,0,0.5296,0.5308,0.5327,0.5351,0.5367,0.5387,0.5408,0.5416,0.5446,0.546,0.5482,0.5497,0.5526,0.5548,0.5573,0.5589,0.5604,0.5607,0.5608,0.5602,0.5593,0.5598,0.5607,0.5607,0.5607,0.5607,0.5607,0.5607,0.5286,0.5296,0.5322,0.5344,0.5362,0.5381,0.5393,0.5414,0.5432,0.5459,0.5472,0.5494,0.5518,0.5554,0.5569,0.5586,0.5591,0.5593,0.5594,0.5594,0.5592,0.559,0.5591,0.5591,0.5591,0.5591,0.5591,0,0.5278,0.5296,0.5315,0.5343,0.536,0.5373,0.5396,0.5409,0.5428,0.545,0.5469,0.5494,0.5515,0.554,0.5563,0.5572,0.558,0.5577,0.5577,0.558,0.5587,0.5583,0.5571,0.5571,0.5571,0.5571,0.5571,0.5571,0.5276,0.5294,0.5309,0.5337,0.5355,0.5377,0.5389,0.5406,0.5424,0.5451,0.5469,0.5486,0.5509,0.5534,0.5554,0.5561,0.5569,0.5564,0.5573,0.5578,0.558,0.5582,0.5578,0.5566,0.5566,0.5566,0.5566,0.5566]},{"header":{"parameterUnit":"m.s-1","parameterCategory":1,"la1":30.2991,"la2":30.254,"lo1":-89.0895,"lo2":-89.0444,"dy":0.0017,"dx":0.0017,"nx":28,"ny":28,"refTime":"2024-07-11T21:00:00:Z","depth":0,"parameterNumber":3,"parameterNumberName":"V-component_of_WINDS"},"data":[0,0,0,0,0,0,0,0,0,0,0,0,0,0,0,0,0,0,0,0,0,0,0,0,0,0,0,0,0,0,0,0,0,0,0,0,0,0,0,0,0,0,0,0,0,0,0,0,0,0,0,0,0,0,0,0,0,0,-1.0735,-1.0736,0,-1.0839,-1.084,-1.0841,-1.0879,-1.0878,-1.0878,-1.0878,-1.0985,-1.0988,-1.0991,0,0,0,0,0,0,0,0,0,0,0,0,0,-1.057,-1.0572,-1.0735,-1.0736,-1.0737,-1.0839,-1.084,-1.0842,-1.0879,-1.0878,-1.0878,-1.0878,-1.0984,-1.0988,-1.0992,0,0,0,0,0,0,0,0,0,0,0,0,0,-1.0654,-1.0573,-1.0735,-1.0768,-1.0772,-1.0838,-1.084,-1.0842,-1.0879,-1.0878,-1.0878,-1.0877,-1.0983,-1.0988,-1.0992,-1.1033,0,0,-1.1007,-1.1009,0,0,0,0,0,0,0,0,-1.0649,-1.066,-1.0762,-1.0766,-1.0771,-1.0845,-1.0821,-1.0906,-1.0879,-1.0838,-1.0878,-1.0877,-1.0939,-1.0948,-1.0968,-1.1038,-1.1043,-1.1007,-1.101,-1.1012,-1.1014,0,0,0,0,0,0,0,-1.0643,-1.0656,-1.0776,-1.0763,-1.0769,-1.0778,-1.079,-1.0838,-1.0891,-1.0842,-1.0845,-1.0857,-1.0941,-1.0964,-1.0971,-1.1044,-1.1007,-1.1012,-1.1015,-1.1016,-1.1153,-1.1154,0,0,0,0,0,0,-1.0632,-1.0651,-1.0773,-1.0779,-1.0707,-1.0782,-1.0795,-1.0822,-1.089,-1.09,-1.0857,-1.0858,-1.0956,-1.0965,-1.0975,-1.1028,-1.1012,-1.1017,-1.102,-1.1153,-1.1153,-1.1154,0,0,0,0,0,0,-1.0628,-1.0642,-1.0769,-1.0716,-1.0733,-1.0785,-1.0816,-1.0824,-1.0846,-1.0902,-1.0911,-1.087,-1.0956,-1.0968,-1.1018,-1.1032,-1.1019,-1.1023,-1.1152,-1.1153,-1.1154,-1.1133,0,0,0,0,0,0,-1.0623,-1.0641,-1.0656,-1.0716,-1.0735,-1.081,-1.0816,-1.0827,-1.0854,-1.0857,-1.0916,-1.0926,-1.0956,-1.1011,-1.1023,-1.1038,-1.1027,-1.1151,-1.1152,-1.1154,-1.1133,-1.1133,-1.1134,0,0,0,0,0,-1.0617,-1.0647,-1.0657,-1.0672,-1.0756,-1.081,-1.0822,-1.0856,-1.0855,-1.0872,-1.0907,-1.0924,-1.1028,-1.1016,-1.103,-1.1047,-1.115,-1.1152,-1.1153,-1.1132,-1.1133,-1.1134,0,0,0,0,0,0,-1.0588,-1.0655,-1.0667,-1.0717,-1.0757,-1.0817,-1.0838,-1.0855,-1.0897,-1.0898,-1.0939,-1.0952,-1.0999,-1.1028,-1.1013,-1.109,-1.109,-1.1095,-1.1069,-1.1071,-1.1071,-1.1063,-1.1031,0,0,0,0,0,-1.0587,-1.0625,-1.0682,-1.072,-1.074,-1.0785,-1.081,-1.0833,-1.0877,-1.0895,-1.0934,-1.0977,-1.1019,-1.1046,-1.1089,-1.1137,-1.1151,-1.1155,-1.1156,-1.1156,-1.1159,-1.1188,-1.1191,-1.116,-1.116,-1.116,0,0,-1.0586,-1.0627,-1.0649,-1.0715,-1.0749,-1.0788,-1.08,-1.084,-1.087,-1.0901,-1.0951,-1.0981,-1.1031,-1.1081,-1.1105,-1.1106,-1.1171,-1.1158,-1.1158,-1.1161,-1.119,-1.1193,-1.1195,-1.1161,-1.1161,-1.1161,0,0,-1.0603,-1.0638,-1.0674,-1.0708,-1.076,-1.079,-1.0799,-1.0855,-1.0877,-1.0927,-1.0951,-1.0987,-1.106,-1.1095,-1.1122,-1.1153,-1.117,-1.1165,-1.1168,-1.1195,-1.1198,-1.12,-1.1212,-1.1215,-1.1169,-1.1169,-1.1169,0,-1.0595,-1.0655,-1.069,-1.073,-1.0759,-1.0788,-1.0825,-1.0857,-1.092,-1.0939,-1.094,-1.1032,-1.1067,-1.1126,-1.1133,-1.1154,-1.1166,-1.1159,-1.1194,-1.1197,-1.12,-1.1212,-1.1216,-1.1168,-1.1168,-1.1168,-1.1168,0,-1.0643,-1.0684,-1.0707,-1.0766,-1.0798,-1.0836,-1.0877,-1.0905,-1.0925,-1.0955,-1.1006,-1.105,-1.1102,-1.1118,-1.1138,-1.1179,-1.1179,-1.1186,-1.1188,-1.1201,-1.1213,-1.1218,-1.1167,-1.1167,-1.1167,-1.1168,0,0,-1.0645,-1.0724,-1.0732,-1.076,-1.0819,-1.0852,-1.0891,-1.0941,-1.0964,-1.1007,-1.1041,-1.1102,-1.111,-1.114,-1.1165,-1.1188,-1.1211,-1.1194,-1.1195,-1.1196,-1.126,-1.1254,-1.1258,-1.1222,-1.1223,-1.1224,-1.1256,0,-1.0671,-1.0743,-1.0776,-1.0833,-1.0872,-1.09,-1.0935,-1.0975,-1.1005,-1.1042,-1.1075,-1.1117,-1.1124,-1.1143,-1.1167,-1.1203,-1.1224,-1.1201,-1.1255,-1.1257,-1.1242,-1.1265,-1.1258,-1.1286,-1.1261,-1.1261,-1.1262,0,-1.0711,-1.0753,-1.0814,-1.0869,-1.0887,-1.0917,-1.0966,-1.1001,-1.1048,-1.1068,-1.1102,-1.1125,-1.1169,-1.1166,-1.1227,-1.121,-1.1234,-1.1255,-1.1257,-1.1264,-1.126,-1.1272,-1.1296,-1.13,-1.1269,-1.1269,-1.1268,0,-1.0707,-1.0779,-1.0825,-1.0848,-1.0913,-1.0934,-1.0962,-1.1008,-1.1036,-1.1079,-1.1098,-1.1146,-1.1172,-1.1208,-1.1244,-1.1239,-1.1301,-1.1302,-1.132,-1.1319,-1.1332,-1.1331,-1.136,-1.1346,-1.1346,-1.1346,-1.1346,0,-1.0733,-1.077,-1.0825,-1.0853,-1.0894,-1.0932,-1.0973,-1.1003,-1.1044,-1.1079,-1.1106,-1.1139,-1.1184,-1.1222,-1.125,-1.1296,-1.1308,-1.1326,-1.1333,-1.1323,-1.1321,-1.134,-1.1339,-1.1347,-1.1347,-1.1347,-1.1347,0,-1.0736,-1.0774,-1.0826,-1.0884,-1.0899,-1.0927,-1.0977,-1.1006,-1.1036,-1.108,-1.1093,-1.1141,-1.1187,-1.1227,-1.1288,-1.1307,-1.1355,-1.1363,-1.1339,-1.1343,-1.1358,-1.1357,-1.1402,-1.141,-1.139,-1.139,-1.139,0,-1.075,-1.0779,-1.0839,-1.0865,-1.0892,-1.0933,-1.0962,-1.1,-1.103,-1.1085,-1.1107,-1.1155,-1.1196,-1.1269,-1.131,-1.1357,-1.1367,-1.138,-1.1374,-1.1364,-1.1368,-1.1366,-1.1369,-1.138,-1.138,-1.138,-1.138,0,-1.0772,-1.0789,-1.083,-1.0877,-1.0911,-1.095,-1.099,-1.1009,-1.1055,-1.1087,-1.1134,-1.1166,-1.1228,-1.1276,-1.1328,-1.1358,-1.1377,-1.1381,-1.1388,-1.1379,-1.1364,-1.1373,-1.134,-1.138,-1.138,-1.138,-1.138,-1.138,-1.0781,-1.0808,-1.0855,-1.0899,-1.0933,-1.097,-1.1,-1.1035,-1.1075,-1.1128,-1.1149,-1.1198,-1.1244,-1.1315,-1.1345,-1.1384,-1.1387,-1.1396,-1.1399,-1.1401,-1.14,-1.1357,-1.1394,-1.1394,-1.1394,-1.1394,-1.1394,0,-1.0805,-1.0836,-1.0877,-1.0932,-1.0967,-1.0981,-1.1026,-1.1055,-1.1097,-1.1139,-1.1178,-1.1233,-1.128,-1.1324,-1.1373,-1.1396,-1.1406,-1.1408,-1.1407,-1.1414,-1.1394,-1.1384,-1.1399,-1.1399,-1.1399,-1.1399,-1.1399,-1.1399,-1.0821,-1.0867,-1.089,-1.0954,-1.0986,-1.1033,-1.1058,-1.1092,-1.1126,-1.1186,-1.1225,-1.1253,-1.1296,-1.1349,-1.1392,-1.1404,-1.1421,-1.142,-1.1435,-1.1416,-1.1415,-1.1414,-1.1404,-1.1424,-1.1424,-1.1451,-1.1451,-1.1452]}]]